Home > Weather > Leuven > Past weeks

Flag for Belgium Past Weather in Leuven, Belgium — Yesterday and Last 2 Weeks

Now
57 °F

Passing clouds.


Feels Like: 57 °F
Forecast: 58 / 67 °F
Wind: 3 mph from Southwest

Location: Brussels National Airport

Current Time: Jun 28, 2016 at 8:14:18 AM

Latest Report: Jun 28, 2016 at 7:20 AM


Visibility: N/A

Pressure: 30.07 "Hg

Humidity: 88%

Dew Point: 54 °F

Location of LeuvenLocation

Past Weather in Leuven — Graph

°F

Leuven Temperature Yesterday

Maximum temperature yesterday: 68 °F (at 3:20 PM)
Minimum temperature yesterday: 54 °F (at 12:20 AM)
Average temperature yesterday: 59 °F

High & Low Weather Summary for the Past Weeks

 TemperatureHumidityPressure
High86 °F (Jun 23, 5:20 PM)100% (Jun 22, 4:20 AM)30.30 "Hg (Jun 22, 4:20 AM)
Low48 °F (Jun 16, 3:50 AM)52% (Jun 19, 6:20 PM)29.47 "Hg (Jun 14, 5:20 PM)
Average61 °F82%29.93 "Hg
* Reported Jun 13 6:20 AM — Jun 28 6:50 AM, Leuven, Weather by CustomWeather, © 2016

Note: Actual official high and low records may vary slightly from our data, if they occured in-between our weather recording intervals... More about our weather records

Advertising

Leuven Weather History for the Previous 24 Hours

Scroll right to see more
 ConditionsComfort  
Time TempWeatherWind HumidityBarometerVisibility
6:50 AM
Tue, Jun 28
55 °FPassing clouds.3 mph94%30.07 "HgN/A
6:20 AM55 °FClear.2 mph94%30.07 "Hg10 mi
5:50 AM55 °FClear.3 mph94%30.07 "Hg10 mi
5:20 AM55 °FPassing clouds.3 mph94%30.07 "HgN/A
4:50 AM55 °FPassing clouds.5 mph94%30.07 "HgN/A
4:20 AM55 °FClear.3 mph94%30.07 "Hg10 mi
3:50 AM57 °FPassing clouds.3 mph94%30.07 "HgN/A
3:20 AM57 °FPartly cloudy.2 mph94%30.09 "HgN/A
2:50 AM59 °FPassing clouds.2 mph94%30.09 "HgN/A
2:20 AM59 °FPassing clouds.3 mph94%30.09 "HgN/A
1:50 AM59 °FPassing clouds.2 mph88%30.09 "HgN/A
1:20 AM59 °FPartly cloudy.3 mph94%30.09 "HgN/A
12:50 AM59 °FPartly cloudy.2 mph88%30.12 "HgN/A
12:20 AM57 °FPartly cloudy.2 mph94%30.09 "HgN/A
11:50 PM
Mon, Jun 27
59 °FPassing clouds.3 mph94%30.09 "HgN/A
11:20 PM59 °FPassing clouds.1 mph88%30.09 "HgN/A
10:50 PM59 °FSunny.2 mph88%30.09 "Hg10 mi
10:20 PM59 °FPassing clouds.3 mph88%30.09 "HgN/A
9:50 PM61 °FSunny.1 mph88%30.09 "Hg10 mi
9:20 PM61 °FPassing clouds.2 mph88%30.09 "HgN/A
8:50 PM63 °FPassing clouds.2 mph83%30.09 "HgN/A
8:20 PM63 °FScattered clouds.2 mph83%30.09 "HgN/A
7:50 PM64 °FScattered clouds.3 mph78%30.09 "HgN/A
7:20 PM63 °FBroken clouds.5 mph88%30.07 "HgN/A
6:50 PM64 °FBroken clouds.7 mph83%30.07 "HgN/A
6:20 PM63 °FBroken clouds.8 mph88%30.07 "HgN/A
5:50 PM61 °FSprinkles. Broken clouds.10 mph83%30.07 "HgN/A
5:20 PM66 °FScattered clouds.9 mph78%30.07 "HgN/A
4:50 PM66 °FBroken clouds.13 mph78%30.07 "HgN/A
4:20 PM66 °FBroken clouds.14 mph73%30.07 "HgN/A
3:50 PM66 °FPartly sunny.15 mph73%30.07 "HgN/A
3:20 PM68 °FBroken clouds.14 mph69%30.07 "HgN/A
2:50 PM66 °FScattered clouds.12 mph83%30.07 "HgN/A
2:20 PM64 °FScattered clouds.12 mph88%30.07 "HgN/A
1:50 PM61 °FDrizzle. Broken clouds.10 mph94%30.07 "Hg5 mi
1:20 PM61 °FDrizzle. Broken clouds.10 mph94%30.07 "Hg5 mi
12:50 PM61 °FDrizzle. Fog.10 mph94%30.07 "Hg2 mi
12:20 PM61 °FDrizzle. Fog.10 mph94%30.07 "Hg3 mi
11:50 AM59 °FDrizzle. Broken clouds.10 mph94%30.07 "HgN/A
11:20 AM59 °FDrizzle. Broken clouds.12 mph94%30.07 "Hg5 mi
10:50 AM61 °FBroken clouds.13 mph88%30.07 "HgN/A
10:20 AM59 °FDrizzle. Partly sunny.10 mph88%30.07 "Hg4 mi
9:50 AM59 °FDrizzle. Partly sunny.13 mph88%30.07 "Hg3 mi
9:20 AM57 °FPartly sunny.9 mph94%30.07 "HgN/A
8:50 AM57 °FBroken clouds.9 mph88%30.07 "HgN/A
8:20 AM57 °FDrizzle. Broken clouds.12 mph88%30.07 "Hg3 mi
Weather by CustomWeather, © 2016

See weather overviewHow to use our weather pages